Location: Unspecified
(0.0000°N, 0.0000°E)
Time: 22:58:28
(UTC+00:00)

Vanguard 1 - All Passes

Search period start: 12 December 2018 00:00
Search period end: 22 December 2018 00:00
Orbit: 650 x 3833 km, 34.2° (Epoch: 11 December)

Date Brightness Start Highest point End Pass type
(mag) Time Alt. Az. Time Alt. Az. Time Alt. Az.
12 Dec - 01:09:26 10° SSW 01:14:52 18° SSE 01:18:54 10° ESE visible
12 Dec - 03:30:38 10° WSW 03:36:28 77° NW 03:40:52 10° NE visible
12 Dec - 10:46:37 10° NNE 10:49:14 11° NNE 10:52:07 10° NE daylight
12 Dec - 13:01:02 10° NNW 13:14:44 44° NE 13:35:23 10° ESE daylight
12 Dec - 15:22:01 10° WNW 15:40:59 81° SW 16:04:51 10° SE daylight
12 Dec - 17:49:41 10° W 18:09:49 37° SSW 18:28:27 10° SSE visible
12 Dec - 20:30:18 10° SW 20:40:59 15° SSW 20:49:40 10° SSE visible
12 Dec - 23:08:25 10° S 23:11:22 11° S 23:13:58 10° SSE visible
13 Dec - 01:29:43 10° SSW 01:36:34 26° SSE 01:41:11 10° E visible
13 Dec - 03:52:12 10° WSW 03:57:19 39° NW 04:01:28 10° NNE visible
13 Dec - 11:04:34 10° N 11:11:15 16° NE 11:20:02 10° ENE daylight
13 Dec - 13:21:35 10° NW 13:36:07 56° NE 13:58:21 10° ESE daylight
13 Dec - 15:43:33 10° WNW 16:02:47 68° SW 16:26:10 10° SE daylight
13 Dec - 18:13:30 10° W 18:32:22 30° SSW 18:49:20 10° SSE visible
13 Dec - 20:56:04 10° SW 21:04:22 14° S 21:11:13 10° SSE visible
13 Dec - 23:28:21 10° SSW 23:33:54 14° S 23:38:15 10° SE visible
14 Dec - 01:50:24 10° SW 01:58:02 41° SSE 02:02:53 10° E night (unlit)
14 Dec - 04:14:20 10° W 04:18:11 21° NW 04:21:33 10° NNE visible
14 Dec - 11:24:07 10° N 11:32:57 23° NE 11:45:44 10° E daylight
14 Dec - 13:42:18 10° NW 13:57:28 70° NE 14:20:47 10° ESE daylight
14 Dec - 16:05:27 10° WNW 16:24:45 55° SW 16:47:21 10° SE daylight
14 Dec - 18:38:02 10° WSW 18:55:17 25° SSW 19:10:21 10° SSE visible
14 Dec - 21:20:35 10° SSW 21:27:45 13° S 21:33:40 10° SSE visible
14 Dec - 23:48:43 10° SSW 23:56:10 18° SSE 00:01:27 10° ESE visible
15 Dec - 02:11:23 10° SW 02:19:14 69° SE 02:24:08 10° ENE night (unlit)
15 Dec - 04:38:09 10° NW 04:39:09 11° NW 04:40:09 10° NNW visible
15 Dec - 11:44:06 10° NNW 11:54:22 31° NE 12:10:20 10° E daylight
15 Dec - 14:03:13 10° NW 14:18:55 85° NE 14:42:47 10° SE daylight
15 Dec - 16:27:48 10° W 16:46:57 45° SSW 17:08:26 10° SE daylight
15 Dec - 19:03:14 10° WSW 19:18:33 21° SSW 19:31:37 10° SSE visible
15 Dec - 21:43:29 10° SSW 21:50:59 14° S 21:56:59 10° SSE visible
16 Dec - 00:09:17 10° SSW 00:18:11 25° SSE 00:23:56 10° ESE visible
16 Dec - 02:32:44 10° WSW 02:40:13 70° NW 02:44:59 10° NE night (unlit)
16 Dec - 12:04:20 10° NNW 12:15:36 41° NE 12:34:04 10° ESE daylight
16 Dec - 14:24:22 10° WNW 14:40:30 79° SW 15:04:27 10° SE daylight
16 Dec - 16:50:43 10° W 17:09:26 37° SSW 17:29:31 10° SSE daylight
16 Dec - 19:28:43 10° SW 19:42:06 18° SSW 19:53:17 10° SSE visible
16 Dec - 22:05:15 10° SSW 22:13:58 16° S 22:20:30 10° SE visible
17 Dec - 00:30:04 10° SW 00:39:58 35° SSE 00:45:52 10° E visible
17 Dec - 02:54:31 10° WSW 03:01:02 39° NW 03:05:29 10° NNE night (unlit)
17 Dec - 10:09:38 10° NNE 10:13:31 12° NE 10:18:11 10° ENE daylight
17 Dec - 12:24:46 10° NW 12:36:44 54° NE 12:57:06 10° ESE daylight
17 Dec - 14:45:49 10° WNW 15:02:18 65° SW 15:25:54 10° SE daylight
17 Dec - 17:14:15 10° W 17:32:15 30° SSW 17:50:40 10° SSE daylight
17 Dec - 19:53:50 10° SW 20:05:48 16° S 20:15:35 10° SSE visible
17 Dec - 22:26:28 10° SSW 22:36:38 20° SSE 22:43:42 10° ESE visible
18 Dec - 00:51:05 10° SW 01:01:29 52° SSE 01:07:21 10° ENE visible
18 Dec - 03:16:55 10° W 03:21:47 22° NW 03:25:31 10° N night (unlit)
18 Dec - 10:28:17 10° N 10:34:58 19° NE 10:44:24 10° E daylight
18 Dec - 12:45:24 10° NW 12:57:55 70° NE 13:19:36 10° ESE daylight
18 Dec - 15:07:37 10° WNW 15:24:20 53° SSW 15:47:12 10° SE daylight
18 Dec - 17:38:26 10° WSW 17:55:26 25° SSW 18:12:02 10° SSE daylight
18 Dec - 20:17:58 10° SW 20:29:27 16° S 20:38:34 10° SE visible
18 Dec - 22:47:31 10° SSW 22:59:01 25° SSE 23:06:24 10° ESE visible
19 Dec - 01:12:21 10° SW 01:22:43 79° SE 01:28:28 10° ENE visible
19 Dec - 03:40:42 10° WNW 03:42:37 12° NW 03:44:22 10° NNW night (unlit)
19 Dec - 10:47:58 10° NNW 10:56:10 27° NE 11:09:02 10° E daylight
19 Dec - 13:06:15 10° NW 13:19:13 87° NE 13:41:40 10° SE daylight
19 Dec - 15:29:51 10° W 15:46:38 43° SSW 16:08:27 10° SE daylight
19 Dec - 18:03:09 10° WSW 18:18:59 21° SSW 18:33:45 10° SSE visible
19 Dec - 20:40:56 10° SSW 20:52:54 18° S 21:01:58 10° SE visible
19 Dec - 23:08:31 10° SW 23:21:08 33° SSE 23:28:35 10° E visible
20 Dec - 01:33:57 10° WSW 01:43:42 67° NW 01:49:15 10° NE night (unlit)
20 Dec - 11:08:03 10° NNW 11:17:10 38° NE 11:32:44 10° ESE daylight
20 Dec - 13:27:21 10° WNW 13:40:44 76° SW 14:03:24 10° SE daylight
20 Dec - 15:52:35 10° W 16:09:15 35° SSW 16:29:43 10° SSE daylight
20 Dec - 18:28:03 10° SW 18:42:49 19° S 18:56:01 10° SSE visible
20 Dec - 21:03:02 10° SSW 21:16:02 21° SSE 21:25:18 10° SE visible
20 Dec - 23:29:37 10° SW 23:42:58 45° SSE 23:50:21 10° E visible
21 Dec - 01:55:58 10° WSW 02:04:30 41° NW 02:09:42 10° NNE night (unlit)
21 Dec - 11:28:23 10° NNW 11:38:07 52° NE 11:55:44 10° ESE daylight
21 Dec - 13:48:44 10° WNW 14:02:30 62° SSW 14:24:55 10° SE daylight
21 Dec - 16:15:54 10° WSW 16:32:13 29° SSW 16:51:08 10° SSE daylight
21 Dec - 18:52:35 10° SW 19:06:46 18° S 19:18:54 10° SE visible
21 Dec - 21:24:37 10° SSW 21:38:51 25° SSE 21:48:18 10° ESE visible
